OPS 4682 DEB, 19576

Orbit data source: Space-Track

OPS 4682 DEB, 19576 is space debris in LEO originally from a launch on Sat, 03 Apr 1965 UTC launched from the Air Force Western Test Range (AFWTR). Debris objects in space refer to the collection of defunct objects orbiting the Earth. Examples of debris include non-operational satellites, rocket bodies, and fragments generated from explosions, collisions, or faulty payload assembly.

Loading next visibility...
Identifier
19576, 1965-027AV
Orbit
LEO
Country
Flag of USUS
Related business
Manufacturer
Unknown
Mission
Spacecraft
Bus & Motor
Unknown
Mass
Unknown
Launch date (UTC)
1965-04-03 (61 years ago)
Launch vehicle
Unknown
Launch site
Air Force Western Test Range (AFWTR)
Object type
Payload
Rocket body
Debris
Shape & HBR
Unknown shape, 0.1 m
Radar Cross Section
Small (<0.1 m²)

Expand to show TLE details & history
Last TLE update: 8 hours ago

TLE from 8 hours ago
0 OPS 4682 DEB
1 19576U 65027AV  26036.36864947 -.00000163  00000-0 -55952-3 0  9993
2 19576  90.2392   6.1534 0024830 202.9071 311.8320 13.00673674781216
Epoch: 2026-02-05T08:50Z
TLE epoch observation values (Epoch: 2026-02-05T08:50:51.314Z)
Latitude
25.5006°
Longitude
-81.96876°
Altitude
1,249.914 km
Speed
7.238 km/s
True Right ascension
12h 25m 04s
True Declination
25° 22' 33"
Sunlit
Object was in full shadow at epoch
Visualization orbit readout
Latitude
Unknown
Longitude
Unknown
Altitude
Unknown
Speed
Unknown
Apparent Right ascension
Unknown
Apparent Declination
Unknown
Sunlit
N/A
Visualization observer readout
Local Sidereal Time
18:28:38
Azimuth
Unknown
Elevation
Unknown
Doppler factor
Unknown
Orbital elements
Apogee altitude
1,275.531 km
Perigee altitude
1,237.617 km
Semi-major axis
7,634.711 km
Eccentricity
0.00248
Inclination
90.2392°
RAAN
6.1534°
Arg. of periapsis
202.9071°
True anomaly
311.61956°
Mean anomaly
311.832°
Eccentric anomaly
311.72582°
Mean motion
3.25353 °/min
Orbital period
110.65 mins
BSTAR
-0.00055952
Loading maneuver chart data...
Computing Atmospheric mass density...
Loading historical data...
Loading historical data...
Loading historical data...
Loading historical data...
Loading historical data...
Loading historical data...
Loading historical data...

Documentation

Showing up to 5 results
|